[[{"header":{"parameterUnit":"m.s-1","parameterCategory":1,"la1":30.2991,"la2":30.254,"lo1":-89.0895,"lo2":-89.0444,"dy":0.0017,"dx":0.0017,"nx":28,"ny":28,"refTime":"2025-03-01T03:00:00:Z","depth":0,"parameterNumber":2,"parameterNumberName":"U-component_of_WINDS"},"data":[0,0,0,0,0,0,0,0,0,0,0,0,0,0,0,0,0,0,0,0,0,0,0,0,0,0,0,0,0,0,0,0,0,0,0,0,0,0,0,0,0,0,0,0,0,0,0,0,0,0,0,0,0,0,0,0,0,0,1.4026,1.4027,0,1.4068,1.4069,1.4069,1.4038,1.4037,1.4035,1.4034,1.4081,1.4084,1.4086,0,0,0,0,0,0,0,0,0,0,0,0,0,1.3922,1.3924,1.4026,1.4027,1.4027,1.4068,1.4069,1.4069,1.4038,1.4036,1.4035,1.4033,1.408,1.4083,1.4087,0,0,0,0,0,0,0,0,0,0,0,0,0,1.3966,1.3925,1.4026,1.4016,1.4016,1.4068,1.4069,1.407,1.4038,1.4036,1.4034,1.4032,1.4079,1.4083,1.4087,1.4152,0,0,1.4099,1.41,0,0,0,0,0,0,0,0,1.3964,1.397,1.4017,1.4017,1.4017,1.4046,1.4049,1.4098,1.4039,1.403,1.4034,1.4031,1.4071,1.4076,1.4088,1.4154,1.4156,1.4099,1.4101,1.4103,1.4104,0,0,0,0,0,0,0,1.3961,1.3968,1.4043,1.4018,1.4018,1.4011,1.4015,1.4058,1.4062,1.4031,1.4028,1.4034,1.4071,1.4085,1.4089,1.4157,1.4099,1.4102,1.4105,1.4106,1.4279,1.4281,0,0,0,0,0,0,1.3958,1.3966,1.4042,1.4044,1.3984,1.4015,1.4019,1.4039,1.4061,1.4063,1.4035,1.4032,1.4079,1.4085,1.4091,1.4168,1.4103,1.4107,1.4109,1.4277,1.4279,1.4282,0,0,0,0,0,0,1.3956,1.3965,1.404,1.4004,1.4013,1.4019,1.4041,1.4041,1.4054,1.4065,1.4066,1.4049,1.4078,1.4085,1.4137,1.417,1.4108,1.4112,1.4274,1.4277,1.4281,1.4324,0,0,0,0,0,0,1.3953,1.3964,1.3988,1.4005,1.4015,1.4084,1.4043,1.4043,1.406,1.4056,1.4078,1.4079,1.4077,1.4131,1.4141,1.4174,1.4115,1.4271,1.4275,1.428,1.432,1.4329,1.4337,0,0,0,0,0,1.3949,1.4,1.399,1.3999,1.4045,1.4086,1.4092,1.4087,1.4063,1.4088,1.4095,1.4079,1.4165,1.4137,1.4147,1.4182,1.4269,1.4274,1.4279,1.4316,1.4327,1.4336,0,0,0,0,0,0,1.3989,1.4002,1.3991,1.4048,1.4066,1.4081,1.4112,1.4099,1.4125,1.412,1.4114,1.4119,1.4173,1.4183,1.4152,1.4246,1.4213,1.4221,1.4238,1.4248,1.4256,1.4253,1.4118,0,0,0,0,0,1.4004,1.4035,1.4045,1.4095,1.4104,1.4107,1.4124,1.4119,1.4137,1.4145,1.4156,1.4176,1.4207,1.4228,1.4258,1.4321,1.4326,1.435,1.4359,1.4365,1.4372,1.4406,1.4417,1.4299,1.4299,1.4299,0,0,1.4036,1.4047,1.4067,1.4103,1.4116,1.4149,1.4113,1.415,1.4175,1.4151,1.42,1.4209,1.4231,1.4288,1.4314,1.4298,1.4406,1.4372,1.4377,1.438,1.4413,1.4424,1.4434,1.4302,1.4302,1.4301,0,0,1.4111,1.4122,1.4165,1.4178,1.4198,1.4199,1.4209,1.4226,1.423,1.4279,1.4262,1.4292,1.4346,1.4362,1.4378,1.4459,1.4445,1.4469,1.4512,1.4545,1.4555,1.4563,1.4592,1.4602,1.4475,1.4475,1.4476,0,1.4148,1.4196,1.4188,1.4226,1.4243,1.4221,1.4265,1.4279,1.4308,1.4321,1.4302,1.4369,1.4383,1.4443,1.4463,1.4476,1.4488,1.4466,1.4554,1.4562,1.4569,1.4597,1.4608,1.4478,1.4478,1.4478,1.4477,0,1.4241,1.4275,1.4307,1.4334,1.4354,1.4395,1.4394,1.4416,1.4409,1.4412,1.4462,1.4477,1.4509,1.4523,1.4517,1.4584,1.4573,1.4554,1.452,1.4583,1.4609,1.462,1.4482,1.4481,1.448,1.448,0,0,1.4343,1.4364,1.4376,1.4388,1.4408,1.4435,1.4475,1.4504,1.4523,1.4544,1.4578,1.4624,1.4606,1.4624,1.462,1.4649,1.4712,1.4626,1.4627,1.4642,1.4786,1.48,1.4812,1.4703,1.4705,1.4706,1.4784,0,1.4418,1.4486,1.448,1.4545,1.4576,1.4556,1.4591,1.4608,1.4612,1.464,1.4645,1.4678,1.4652,1.4663,1.4691,1.4698,1.4741,1.4693,1.4735,1.4736,1.4729,1.4825,1.484,1.4913,1.4794,1.4796,1.4797,0,1.4516,1.4538,1.4606,1.4621,1.4634,1.4665,1.4692,1.4718,1.4738,1.4739,1.4758,1.4748,1.479,1.4755,1.4812,1.4779,1.4796,1.4803,1.4805,1.4809,1.477,1.4832,1.4936,1.4947,1.4813,1.4811,1.481,0,1.4582,1.463,1.4676,1.4687,1.4706,1.4728,1.4738,1.4754,1.4773,1.4797,1.4809,1.4838,1.4854,1.4877,1.4876,1.4851,1.4934,1.49,1.4937,1.4937,1.4955,1.4954,1.5064,1.4967,1.4967,1.4966,1.4966,0,1.4667,1.4709,1.4706,1.4735,1.4781,1.4775,1.4821,1.4828,1.4843,1.4874,1.4859,1.4888,1.4885,1.4915,1.4915,1.4962,1.4969,1.4972,1.4971,1.4973,1.4973,1.4984,1.4979,1.4969,1.4969,1.4968,1.4967,0,1.4749,1.4749,1.4798,1.4812,1.4816,1.485,1.4862,1.489,1.4893,1.4931,1.494,1.4945,1.4979,1.498,1.502,1.502,1.5077,1.5071,1.507,1.5069,1.5106,1.5102,1.5227,1.5243,1.5135,1.5136,1.5137,0,1.4803,1.4835,1.4852,1.487,1.488,1.4911,1.4929,1.4924,1.4944,1.4968,1.4992,1.5025,1.505,1.5106,1.5114,1.5144,1.5138,1.518,1.5143,1.5144,1.5139,1.5137,1.514,1.5187,1.5188,1.5189,1.519,0,1.4899,1.4897,1.4923,1.495,1.4972,1.4993,1.5012,1.5028,1.5025,1.5049,1.5082,1.5102,1.5142,1.5174,1.5203,1.5214,1.5202,1.5201,1.5212,1.5214,1.5212,1.5213,1.509,1.5199,1.5198,1.5197,1.5197,1.5196,1.4969,1.4996,1.5012,1.5041,1.5055,1.5073,1.5099,1.5105,1.5133,1.5164,1.516,1.5197,1.5216,1.5254,1.5267,1.5297,1.5283,1.5298,1.5301,1.5305,1.5309,1.5207,1.5302,1.5302,1.5302,1.5302,1.5302,0,1.5064,1.5073,1.51,1.5127,1.515,1.5135,1.5156,1.5177,1.521,1.5228,1.5253,1.5292,1.5323,1.5333,1.5364,1.5386,1.5381,1.5394,1.5393,1.5395,1.532,1.5308,1.5398,1.5398,1.5398,1.5398,1.5398,1.5398,1.5116,1.516,1.5161,1.5212,1.5221,1.5257,1.527,1.5287,1.5301,1.5345,1.537,1.5376,1.5391,1.5423,1.5451,1.5454,1.5466,1.5481,1.5481,1.541,1.5401,1.5391,1.538,1.5484,1.5484,1.5554,1.5554,1.5555]},{"header":{"parameterUnit":"m.s-1","parameterCategory":1,"la1":30.2991,"la2":30.254,"lo1":-89.0895,"lo2":-89.0444,"dy":0.0017,"dx":0.0017,"nx":28,"ny":28,"refTime":"2025-03-01T03:00:00:Z","depth":0,"parameterNumber":3,"parameterNumberName":"V-component_of_WINDS"},"data":[0,0,0,0,0,0,0,0,0,0,0,0,0,0,0,0,0,0,0,0,0,0,0,0,0,0,0,0,0,0,0,0,0,0,0,0,0,0,0,0,0,0,0,0,0,0,0,0,0,0,0,0,0,0,0,0,0,0,2.2496,2.2497,0,2.2589,2.259,2.2591,2.2542,2.254,2.2537,2.2535,2.2627,2.2631,2.2636,0,0,0,0,0,0,0,0,0,0,0,0,0,2.2266,2.2271,2.2495,2.2497,2.2498,2.2589,2.259,2.2592,2.2543,2.254,2.2537,2.2534,2.2625,2.2631,2.2636,0,0,0,0,0,0,0,0,0,0,0,0,0,2.2363,2.2272,2.2495,2.2485,2.2485,2.2589,2.259,2.2592,2.2544,2.254,2.2536,2.2533,2.2623,2.263,2.2637,2.2756,0,0,2.2659,2.2662,0,0,0,0,0,0,0,0,2.2358,2.2372,2.2485,2.2485,2.2486,2.255,2.2543,2.2647,2.2544,2.2521,2.2535,2.2531,2.2604,2.2613,2.2638,2.276,2.2764,2.266,2.2664,2.2667,2.2669,0,0,0,0,0,0,0,2.2351,2.2368,2.2532,2.2487,2.2487,2.2472,2.2482,2.2563,2.2582,2.2523,2.2519,2.2531,2.2603,2.2631,2.264,2.2766,2.266,2.2666,2.267,2.2673,2.2985,2.2988,0,0,0,0,0,0,2.2346,2.2362,2.2529,2.2535,2.2411,2.248,2.2491,2.2533,2.2581,2.2585,2.2535,2.2529,2.2621,2.2632,2.2643,2.2782,2.2667,2.2674,2.2678,2.2981,2.2986,2.299,0,0,0,0,0,0,2.2341,2.2361,2.2526,2.2448,2.2468,2.2488,2.2536,2.2537,2.2565,2.259,2.2593,2.256,2.2619,2.2633,2.2728,2.2785,2.2677,2.2683,2.2976,2.2982,2.2988,2.3064,0,0,0,0,0,0,2.2335,2.236,2.2408,2.2449,2.2472,2.2611,2.254,2.2542,2.2578,2.2572,2.2615,2.2618,2.2617,2.2717,2.2735,2.2793,2.2689,2.2971,2.2979,2.2986,2.3056,2.3072,2.3085,0,0,0,0,0,2.2327,2.2425,2.241,2.2431,2.2532,2.2615,2.2627,2.2625,2.2583,2.2629,2.2644,2.2617,2.2776,2.2727,2.2747,2.2808,2.2967,2.2977,2.2985,2.305,2.3069,2.3084,0,0,0,0,0,0,2.2389,2.2431,2.2415,2.253,2.2569,2.2606,2.2665,2.2646,2.2697,2.2688,2.2681,2.2691,2.2789,2.2808,2.2753,2.2922,2.2865,2.2878,2.2907,2.2925,2.2939,2.2932,2.2695,0,0,0,0,0,2.2417,2.2482,2.2514,2.2612,2.2633,2.2646,2.2682,2.2676,2.2716,2.2732,2.2754,2.2792,2.285,2.2889,2.2944,2.3058,2.3065,2.3109,2.3124,2.3135,2.3147,2.3204,2.3224,2.3019,2.3019,2.3019,0,0,2.2473,2.2504,2.2546,2.2626,2.2655,2.2721,2.266,2.2733,2.278,2.2742,2.2833,2.285,2.2892,2.2996,2.3043,2.3014,2.3204,2.3147,2.3156,2.3161,2.3216,2.3235,2.3252,2.3025,2.3024,2.3023,0,0,2.261,2.2641,2.2725,2.2756,2.2801,2.2808,2.2828,2.2868,2.2878,2.2969,2.2941,2.2995,2.3097,2.3126,2.3155,2.3298,2.3273,2.3316,2.339,2.3447,2.3463,2.3477,2.3526,2.3543,2.3327,2.3327,2.3327,0,2.2675,2.2774,2.277,2.2844,2.2878,2.2847,2.2929,2.2959,2.302,2.3043,2.301,2.3134,2.316,2.3269,2.3303,2.3328,2.3348,2.3311,2.3461,2.3476,2.3489,2.3535,2.3553,2.3332,2.3332,2.3331,2.3331,0,2.2849,2.2918,2.298,2.3039,2.308,2.3159,2.3163,2.3205,2.3194,2.3204,2.3294,2.3324,2.3382,2.3408,2.3399,2.3514,2.3495,2.3462,2.3404,2.3513,2.3556,2.3574,2.3339,2.3337,2.3336,2.3335,0,0,2.303,2.3084,2.3107,2.3132,2.3178,2.323,2.3304,2.3362,2.3396,2.3438,2.3498,2.3583,2.3552,2.3584,2.3577,2.3627,2.3734,2.3588,2.3588,2.3612,2.386,2.3883,2.3904,2.3718,2.3722,2.3724,2.3855,0,2.3168,2.33,2.3297,2.3419,2.348,2.3449,2.3513,2.3547,2.3557,2.3608,2.3618,2.3677,2.3633,2.3651,2.3699,2.3712,2.3784,2.3702,2.3772,2.3774,2.3761,2.3927,2.3953,2.4075,2.3872,2.3875,2.3877,0,2.3348,2.3395,2.3523,2.3557,2.3582,2.3641,2.3691,2.3742,2.3777,2.378,2.3815,2.3799,2.3871,2.381,2.3907,2.3852,2.3879,2.3889,2.3894,2.3899,2.3832,2.3935,2.4115,2.4133,2.3904,2.3902,2.39,0,2.3463,2.3559,2.3647,2.367,2.3712,2.3753,2.3772,2.3804,2.3838,2.3881,2.3903,2.3954,2.3981,2.402,2.4017,2.3974,2.4114,2.4054,2.4117,2.4117,2.4148,2.4146,2.4333,2.4168,2.4167,2.4167,2.4167,0,2.3617,2.3696,2.37,2.3754,2.384,2.3833,2.3918,2.3932,2.396,2.4014,2.399,2.4041,2.4035,2.4085,2.4083,2.4161,2.4174,2.4177,2.4175,2.4179,2.4178,2.4196,2.4187,2.4172,2.4171,2.417,2.4169,0,2.3762,2.3768,2.3861,2.3892,2.3902,2.3963,2.3989,2.4038,2.4045,2.4113,2.4129,2.4138,2.4196,2.4197,2.4262,2.426,2.4356,2.4346,2.4345,2.4342,2.4404,2.4397,2.4608,2.4634,2.4454,2.4455,2.4457,0,2.3859,2.3919,2.3956,2.3991,2.4012,2.4069,2.4103,2.4097,2.4133,2.4176,2.4219,2.4274,2.4318,2.4411,2.4422,2.4471,2.446,2.4531,2.4468,2.4468,2.4459,2.4455,2.446,2.4543,2.4545,2.4547,2.4548,0,2.4031,2.403,2.408,2.4131,2.4172,2.4212,2.4248,2.4278,2.4275,2.4316,2.4375,2.4409,2.4475,2.4528,2.4575,2.4592,2.4569,2.4567,2.4584,2.4588,2.4584,2.4585,2.4377,2.4563,2.4561,2.456,2.4559,2.4559,2.4153,2.4203,2.4237,2.4293,2.4319,2.4353,2.44,2.4412,2.4461,2.4515,2.4508,2.4572,2.4602,2.4662,2.4682,2.4731,2.4706,2.4731,2.4737,2.4743,2.4749,2.4577,2.4739,2.4739,2.4738,2.4738,2.4738,0,2.4322,2.4341,2.4392,2.4443,2.4487,2.4462,2.45,2.4537,2.4594,2.4624,2.4667,2.4732,2.4784,2.4798,2.4847,2.4882,2.4873,2.4895,2.4892,2.4895,2.4769,2.4749,2.4902,2.4902,2.4902,2.4902,2.4902,2.4902,2.4414,2.4497,2.4499,2.4593,2.4611,2.4675,2.4698,2.4728,2.4751,2.4826,2.4868,2.4877,2.49,2.495,2.4994,2.4997,2.5015,2.5042,2.504,2.4921,2.4905,2.4889,2.487,2.5046,2.5046,2.5162,2.5163,2.5164]}]]